This is the latest recevied weather packets stored in our database for station/object DB0FN-10. If no packets are shown the sender has not sent any weather packets the latest 10 day(s).
| Time | Temp. | Humidity | Pressure | Rain* | Wind** | Luminosity | Snow |
|---|---|---|---|---|---|---|---|
| 1777806980 | 25.56° C | 29% | 1019.1 hPa | - | - | - | - |
| 1777806080 | 25.56° C | 30% | 1019.3 hPa | - | - | - | - |
| 1777805180 | 25.56° C | 32% | 1019.3 hPa | - | - | - | - |
| 1777804280 | 25.56° C | 34% | 1019.5 hPa | - | - | - | - |
| 1777803380 | 25° C | 34% | 1019.7 hPa | - | - | - | - |
| 1777802480 | 24.44° C | 34% | 1019.8 hPa | - | - | - | - |
| 1777801579 | 23.89° C | 35% | 1020 hPa | - | - | - | - |
| 1777800679 | 23.89° C | 36% | 1020.1 hPa | - | - | - | - |
| 1777799779 | 23.33° C | 36% | 1020.2 hPa | - | - | - | - |
| 1777798879 | 22.78° C | 35% | 1020.3 hPa | - | - | - | - |
| 1777797979 | 22.78° C | 35% | 1020.3 hPa | - | - | - | - |
| 1777797079 | 22.22° C | 37% | 1020.4 hPa | - | - | - | - |
| 1777796179 | 21.67° C | 39% | 1020.5 hPa | - | - | - | - |
| 1777795279 | 20.56° C | 41% | 1020.4 hPa | - | - | - | - |
| 1777794379 | 20.56° C | 39% | 1020.2 hPa | - | - | - | - |
| 1777793479 | 20.56° C | 39% | 1020.3 hPa | - | - | - | - |
| 1777792579 | 22.22° C | 44% | 1020.2 hPa | - | - | - | - |
| 1777791679 | 22.22° C | 36% | 1020.1 hPa | - | - | - | - |
| 1777790779 | 21.67° C | 37% | 1020 hPa | - | - | - | - |
| 1777789878 | 22.22° C | 35% | 1019.9 hPa | - | - | - | - |
| 1777788978 | 22.22° C | 36% | 1020 hPa | - | - | - | - |
| 1777788078 | 21.67° C | 36% | 1020 hPa | - | - | - | - |
| 1777787178 | 21.67° C | 36% | 1019.9 hPa | - | - | - | - |
| 1777786278 | 21.11° C | 36% | 1019.8 hPa | - | - | - | - |
| 1777785378 | 21.11° C | 38% | 1019.9 hPa | - | - | - | - |
* Rain since midnight (hover to see other rain measurements)
** Current wind speed in m/s (hover to see current wind gust speed)